Regional Weather Roundup
Issued by NWS

Home | Current Version | Previous Version | Text Only | Print | Product List | Glossary On
Versions: 1 2 3 4 5 6 7 8 9 10 11 12 13 14 15 16 17 18 19 20 21 22 23 24 25 26 27 28 29 30 31 32 33 34 35 36 37 38 39 40 41 42 43 44 45 46 47 48 49 50
000
ASUS43 KTOP 280159
RWRKS

WEATHER ROUNDUP FOR KANSAS
NATIONAL WEATHER SERVICE GOODLAND KS
900 PM CDT MON APR 27 2015

NOTE:  "FAIR" INDICATES FEW OR NO CLOUDS BELOW 12,000 FEET WITH NO
SIGNIFICANT WEATHER AND/OR OBSTRUCTIONS TO VISIBILITY.

KSZ001>006-013>018-027>032-041>047-280300-
NORTHWEST KANSAS

CITY           SKY/WX    TMP DP  RH WIND       PRES   REMARKS
GOODLAND       MOCLDY    48  34  58 NE8       30.22R
HAYS           CLEAR     52  30  43 NE8       30.15S
HILL CITY      PTCLDY    48  38  68 NE6       30.18R
RUSSELL        PTCLDY    51  35  54 NE6       30.13R
$$

KSZ061>065-074>080-084>089-280300-
SOUTHWEST KANSAS

CITY           SKY/WX    TMP DP  RH WIND       PRES   REMARKS
DODGE CITY     CLOUDY    50  34  54 NE13      30.14R
ELKHART          N/A     46  36  68 N6          N/A
GARDEN CITY    CLOUDY    51  32  48 NE8       30.15R
GREAT BEND     PTCLDY    54  36  50 NE8       30.13R
LIBERAL        CLOUDY    46  39  76 CALM      30.15R
$$

KSZ066>073-081>083-090>101-280300-
SOUTHEAST KANSAS

CITY           SKY/WX    TMP DP  RH WIND       PRES   REMARKS
CHANUTE        CLOUDY    57  38  48 NE5       30.06R
COFFEYVILLE    CLOUDY    57  41  55 N8        30.03R
HUTCHINSON     MOCLDY    55  36  48 E5        30.09R
MEDICINE LODGE   N/A     56  39  53 NE10      30.08R
NEWTON         CLOUDY    54  36  50 CALM      30.11R
PARSONS        CLOUDY    57  39  51 N6        30.05S
WICHITA INTL   CLOUDY    59  35  40 NE9       30.07R
WICHITA JABRA  CLOUDY    56  36  47 NE7       30.08R
WINFIELD       CLOUDY    56  39  53 N7        30.06R
$$

KSZ007>012-019>026-033>040-048>060-102>105-280300-
NORTHEAST KANSAS

CITY           SKY/WX    TMP DP  RH WIND       PRES   REMARKS
CONCORDIA      MOCLDY    55  35  47 NE3       30.13R
EMPORIA        MOCLDY    55  35  47 NE6       30.09R
LAWRENCE       PTCLDY    50  40  68 N5        30.08R
MANHATTAN      CLEAR     55  37  50 N5        30.10R
OLATHE IND     PTCLDY    51  38  60 N5        30.08R
OLATHE EXE     PTCLDY    58  35  42 NE6       30.07R
SALINA         PTCLDY    59  34  39 NE6       30.12R
TOPEKA BILLARD PTCLDY    56  37  49 CALM      30.09R
TOPEKA FORBES  PTCLDY    58  35  42 N5        30.08S
$$



USA.gov is the U.S. government's official web portal to all federal, state and local government web resources and services.